Regional Weather Roundup
Issued by NWS

Home | Current Version | Previous Version | Text Only | Print | Product List | Glossary On
Versions: 1 2 3 4 5 6 7 8 9 10 11 12 13 14 15 16 17 18 19 20 21 22 23 24 25 26 27 28 29 30 31 32 33 34 35 36 37 38 39 40 41 42 43 44 45 46 47 48 49 50
000
ASUS43 KTOP 280008
RWRKS

WEATHER ROUNDUP FOR KANSAS
NATIONAL WEATHER SERVICE GOODLAND KS
600 PM CST TUE JAN 27 2015

NOTE:  "FAIR" INDICATES FEW OR NO CLOUDS BELOW 12,000 FEET WITH NO
SIGNIFICANT WEATHER AND/OR OBSTRUCTIONS TO VISIBILITY.

KSZ001>006-013>018-027>032-041>047-280100-
NORTHWEST KANSAS

CITY           SKY/WX    TMP DP  RH WIND       PRES   REMARKS
GOODLAND       MOCLDY    60  27  28 S6        29.98F
6HR MIN TEMP:  60; 6HR MAX TEMP:  79;

HAYS           CLEAR     70  25  18 SW14      29.95R
HILL CITY      CLEAR     67  30  25 CALM      29.94R
6HR MIN TEMP:  65; 6HR MAX TEMP:  83;

RUSSELL        CLEAR     67  27  22 SW12      29.92R
6HR MIN TEMP:  58; 6HR MAX TEMP:  83;

$$

KSZ061>065-074>080-084>089-280100-
SOUTHWEST KANSAS

CITY           SKY/WX    TMP DP  RH WIND       PRES   REMARKS
DODGE CITY     PTCLDY    69  25  19 SW13      30.00F
6HR MIN TEMP:  69; 6HR MAX TEMP:  80;

ELKHART          N/A     66  32  28 S9          N/A
GARDEN CITY    PTCLDY    61  26  26 S8        29.99F
6HR MIN TEMP:  61; 6HR MAX TEMP:  79;

LIBERAL        PTCLDY    68  30  24 SW14      30.05S
PRATT          CLEAR     61  32  33 SW8       30.00S
$$

KSZ066>073-081>083-090>101-280100-
SOUTHEAST KANSAS

CITY           SKY/WX    TMP DP  RH WIND       PRES   REMARKS
CHANUTE        CLEAR     53  35  50 SE8       30.06F
6HR MIN TEMP:  53; 6HR MAX TEMP:  63;

COFFEYVILLE    CLEAR     58  35  42 SE8       30.06F
6HR MIN TEMP:  58; 6HR MAX TEMP:  67;

HUTCHINSON     CLEAR     61  36  39 S8        29.97S
6HR MIN TEMP:  61; 6HR MAX TEMP:  77;

MEDICINE LODGE   N/A     73  27  18 SW8       29.98S
NEWTON         CLEAR     61  34  36 S13       30.01S
PARSONS        CLEAR     58  35  42 SE5       30.07S
6HR MIN TEMP:  57; 6HR MAX TEMP:  66;

WICHITA INTL   PTCLDY    65  37  35 S13       29.99F
6HR MIN TEMP:  63; 6HR MAX TEMP:  73;

WICHITA JABRA  CLEAR     62  36  37 S10       29.99F
6HR MIN TEMP:  62; 6HR MAX TEMP:  71;

WICHITA MCCONL CLEAR     62  38  40 SE9       30.00F
WINFIELD       CLEAR     62  31  31 S8        30.02F
6HR MIN TEMP:  60; 6HR MAX TEMP:  73;

$$

KSZ007>012-019>026-033>040-048>060-102>105-280100-
NORTHEAST KANSAS

CITY           SKY/WX    TMP DP  RH WIND       PRES   REMARKS
CONCORDIA      CLEAR     57  34  41 SE7       29.94F
6HR MIN TEMP:  57; 6HR MAX TEMP:  69;

EMPORIA        CLEAR     55  34  45 SE13      30.02F
6HR MIN TEMP:  55; 6HR MAX TEMP:  63;

LAWRENCE       CLEAR     48  32  53 SE9       30.06F
6HR MIN TEMP:  48; 6HR MAX TEMP:  58;

MANHATTAN      CLEAR     58  34  40 SE5       29.99S
6HR MIN TEMP:  58; 6HR MAX TEMP:  65;

MARYSVILLE     CLEAR     50  32  50 SE7       30.00R
OLATHE IND     CLEAR     49  33  54 SE7       30.08S
6HR MIN TEMP:  49; 6HR MAX TEMP:  58;

OLATHE EXE     CLEAR     50  32  50 SE7       30.07F
6HR MIN TEMP:  49; 6HR MAX TEMP:  57;

SALINA         CLEAR     63  37  38 SE10      29.94F
6HR MIN TEMP:  63; 6HR MAX TEMP:  75;

TOPEKA BILLARD CLEAR     49  31  49 E8        30.05S
6HR MIN TEMP:  49; 6HR MAX TEMP:  61;

TOPEKA FORBES  CLEAR     52  32  46 SE7       30.03F
6HR MIN TEMP:  52; 6HR MAX TEMP:  62;

$$



USA.gov is the U.S. government's official web portal to all federal, state and local government web resources and services.